SCP
0 0 0 0 0 0 0 0 0 0 0 0 0 0 0 0 0 0 0 0 0 0 0 0 0 0 0 0 0 0 0 0 0 0 0 0 0 0 0 0 0 0 0 0 0 0 0 0 0
0 0 0 0 0 0 0 0 0 0 0 0 0 0 0 0 0 0 0 0 0 0 0 0 0 0 0 0 0 0 0 0 0 0 0 0 0 0 0 0 0 0 0 0 0 0 0 0 0
0 0 0 0 0 0 0 0 0 0 0 0 0 0 0 0 0 0 0 0 0 0 0 0 1 0 0 0 0 0 0 0 0 0 0 0 0 0 0 0 0 0 0 0 0 0 0 0 0
0 0 0 0 0 0 0 0 0 0 0 0 0 0 0 0 0 0 0 0 0 0 0 0 1 1 0 0 0 0 0 0 0 0 0 0 0 0 0 0 0 0 0 0 0 0 0 0 0
0 0 0 0 0 0 0 0 0 0 0 0 0 0 0 0 0 0 0 0 0 0 0 1 1 1 0 0 0 0 0 0 0 0 0 0 0 0 0 0 0 0 0 0 0 0 0 0 0
0 0 0 0 0 0 0 0 0 0 0 0 0 0 0 0 0 0 0 0 0 0 0 1 1 1 1 0 0 0 0 0 0 0 0 0 0 0 0 0 0 0 0 0 0 0 0 0 0
0 0 0 0 0 0 0 0 0 0 0 0 0 0 0 0 0 0 0 0 0 0 0 1 1 1 0 0 0 0 0 0 0 0 0 0 0 0 0 0 0 0 0 0 0 0 0 0 0
0 0 0 0 0 0 0 0 0 0 0 0 0 0 0 0 0 0 0 0 0 0 0 1 0 0 0 0 0 0 0 0 0 0 0 0 0 0 0 0 0 0 0 0 0 0 0 0 0
0 0 0 0 0 0 0 0 0 0 0 0 0 0 0 0 0 0 0 0 0 0 0 0 0 0 0 0 0 0 0 0 0 0 0 0 0 0 0 0 0 0 0 0 0 0 0 0 0
0 0 0 0 0 0 0 0 0 0 0 0 0 0 0 0 0 0 0 0 0 0 0 0 0 0 0 0 0 0 0 0 0 0 0 0 0 0 0 0 0 0 0 0 0 0 0 0 0
0 0 0 0 0 0 0 0 0 0 0 0 0 0 0 0 0 0 0 0 0 0 0 0 0 0 0 0 0 0 0 0 0 0 0 0 0 0 0 0 0 0 0 0 0 0 0 0 0
0 0 0 0 0 0 0 0 0 0 0 0 0 0 0 0 0 0 0 0 0 0 0 0 0 0 0 0 0 0 0 0 0 0 0 0 0 0 0 0 0 0 0 0 0 0 0 0 0
0 0 0 0 0 0 0 0 0 0 0 0 0 0 0 0 0 0 0 0 0 0 0 0 0 0 0 0 0 0 0 0 0 0 0 0 0 0 0 0 0 0 0 0 0 0 0 0 0
0 0 0 0 0 0 0 0 0 0 0 0 0 0 0 0 0 0 0 0 0 0 0 0 0 0 0 0 0 0 0 0 0 0 0 0 0 0 0 0 0 0 0 0 0 0 0 0 0
0 0 0 0 0 0 0 0 0 0 0 0 0 0 0 0 0 0 0 0 0 0 0 0 0 0 0 0 0 0 0 0 0 0 0 0 0 0 0 0 0 0 0 0 0 0 0 0 0
0 0 0 0 0 0 0 0 0 0 0 0 0 0 0 0 0 0 0 0 0 0 0 0 0 0 0 0 0 0 0 0 0 0 0 0 0 0 0 0 0 0 0 0 0 0 0 0 0
0 0 0 0 0 0 0 0 0 0 0 0 0 0 0 0 0 0 0 0 0 0 0 0 0 0 0 0 0 0 0 0 0 0 0 0 0 0 0 0 0 0 0 0 0 0 0 0 0
0 0 0 0 0 0 0 0 0 0 0 0 0 0 0 0 0 0 0 0 0 0 0 0 0 0 0 0 0 0 0 0 0 0 0 0 0 0 0 0 0 0 0 0 0 0 0 0 0
0 0 0 0 0 0 0 0 0 0 0 0 0 0 0 0 0 0 0 0 0 0 0 0 0 0 0 0 0 0 0 0 0 0 0 0 0 0 0 0 0 0 0 0 0 0 0 0 0
0 0 0 0 0 0 0 0 0 0 0 0 0 0 0 0 0 0 0 0 0 0 0 0 0 0 0 0 0 0 0 0 0 0 0 0 0 0 0 0 0 0 0 0 0 0 0 0 0
0 0 0 0 0 0 0 0 0 0 0 0 0 0 0 0 0 0 0 0 0 0 0 0 0 0 0 0 0 0 0 0 0 0 0 0 0 0 0 0 0 0 0 0 0 0 0 0 0
0 0 0 0 0 0 0 0 0 0 0 0 0 0 0 0 0 0 0 0 0 0 0 0 0 0 0 0 0 0 0 0 0 0 0 0 0 0 0 0 0 0 0 0 0 0 0 0 0
0 0 0 0 0 0 0 0 0 0 0 0 0 0 0 0 0 0 0 0 0 0 0 0 0 0 0 0 0 0 0 0 0 0 0 0 0 0 0 0 0 0 0 0 0 0 0 0 0
0 0 0 0 0 0 0 0 0 0 0 0 0 0 0 0 0 0 0 0 0 0 0 0 0 0 0 0 0 0 0 0 0 0 0 0 0 0 0 0 0 0 0 0 0 0 0 0 0
0 0 0 0 0 0 0 0 0 0 0 0 0 0 0 0 0 0 0 0 0 0 0 0 0 0 0 0 0 0 0 0 0 0 0 0 0 0 0 0 0 0 0 0 0 0 0 0 0
0 0 0 0 0 0 0 0 0 0 0 0 0 0 0 0 0 0 0 0 0 0 0 0 0 0 0 0 0 0 0 0 0 0 0 0 0 0 0 0 0 0 0 0 0 0 0 0 0
0 0 0 0 0 0 0 0 0 0 0 0 0 0 0 0 0 0 0 0 0 0 0 0 0 0 0 0 0 0 0 0 0 0 0 0 0 0 0 0 0 0 0 0 0 0 0 0 0
0 0 0 0 0 0 0 0 0 0 0 0 0 0 0 0 0 0 0 0 0 0 0 0 0 0 0 0 0 0 0 0 0 0 0 0 0 0 0 0 0 0 0 0 0 0 0 0 0
0 0 0 0 0 0 0 0 0 0 0 0 0 0 0 0 0 0 0 0 0 0 0 0 0 0 0 0 0 0 0 0 0 0 0 0 0 0 0 0 0 0 0 0 0 0 0 0 0
0 0 0 0 0 0 0 0 0 0 0 0 0 0 0 0 0 0 0 0 0 0 0 0 0 0 0 0 0 0 0 0 0 0 0 0 0 0 0 0 0 0 0 0 0 0 0 0 0
Wind_Speed
10 6 3 5 6 4 3 5 4 6 5 2 2 5 6 3 1 3 1 6 10 10 9 12 14 16 15 13 11 10 9 8 6 5 7 9 7 6 5 5 4 5 5 4 1 2 4 4 5
4 4 5 5 5 1 5 5 4 5 3 1 2 4 3 0 0 4 3 7 13 12 9 9 14 16 15 13 11 10 9 7 6 6 6 9 9 7 6 5 3 3 4 4 2 1 4 3 4
5 4 5 4 2 4 5 4 4 5 4 2 2 3 2 2 2 5 5 11 10 10 9 11 16 17 16 14 12 10 9 7 6 7 6 8 9 8 6 5 5 4 4 4 3 1 1 3 2
4 6 5 4 3 5 5 8 8 6 4 1 4 3 1 2 4 5 5 11 11 9 9 12 18 17 16 15 13 11 10 8 6 5 5 7 9 9 7 7 6 6 5 4 4 2 2 3 1
5 5 5 3 5 6 5 8 9 5 3 2 5 4 2 4 0 5 7 10 12 9 8 12 19 18 17 16 15 13 11 10 8 7 4 4 8 9 8 7 6 6 5 5 5 6 6 5 5
5 5 4 3 7 7 7 7 8 7 4 3 6 5 3 1 4 5 6 8 10 10 9 10 18 17 17 17 15 13 12 11 11 10 7 5 6 6 7 7 7 7 7 7 7 8 9 9 8
4 4 2 4 5 6 5 8 6 5 3 5 8 6 3 4 6 6 5 6 7 9 9 8 9 11 14 14 14 13 12 11 10 11 9 6 5 5 7 7 7 9 9 8 8 9 10 11 11
4 4 1 4 4 6 7 11 6 4 3 2 6 7 6 7 8 6 5 5 7 7 9 8 8 8 8 9 13 13 11 10 9 10 9 7 6 6 7 6 8 10 10 10 10 11 11 12 13
4 4 3 5 4 5 8 8 7 6 3 2 2 3 4 6 8 6 4 4 6 8 7 8 8 8 8 7 9 11 10 10 8 9 11 8 4 4 5 7 9 11 12 12 12 13 13 12 13
4 4 8 6 4 5 8 8 7 8 8 2 2 3 2 8 9 9 9 9 10 10 9 8 9 9 8 8 6 5 5 5 5 5 6 5 4 5 7 9 12 14 14 14 15 14 13 10 5
6 7 6 7 8 6 6 7 4 3 6 4 5 6 5 6 8 9 10 9 9 8 9 11 10 9 8 6 5 4 3 3 5 6 7 5 5 4 5 4 6 9 10 7 9 8 5 4 4
5 7 7 7 7 5 6 6 6 5 9 7 8 6 9 9 11 14 13 9 6 7 8 9 11 9 9 7 6 5 4 4 4 6 7 6 4 5 5 5 6 6 4 5 5 4 5 6 6
5 6 8 11 11 8 7 8 7 8 12 9 7 7 12 13 13 11 9 8 8 9 10 9 11 12 10 8 6 7 7 7 7 7 8 8 6 6 5 5 6 7 5 5 5 6 7 7 7
6 5 5 7 8 5 6 9 5 10 9 6 4 8 11 13 14 11 11 12 12 13 12 11 12 13 11 10 9 8 8 8 7 8 9 10 9 8 7 7 8 8 6 6 6 7 7 7 7
3 4 8 8 8 5 3 8 9 12 8 9 8 8 9 10 8 8 8 9 10 10 9 11 13 11 12 12 11 9 8 7 8 8 9 11 10 10 8 7 8 6 4 5 5 6 5 6 6
1 1 5 8 4 5 5 10 14 8 6 8 6 2 3 3 3 3 4 5 6 8 9 12 12 12 12 11 10 7 7 8 7 7 7 9 9 8 6 6 6 4 4 5 6 6 6 7 7
1 2 6 9 5 5 7 9 12 4 3 5 2 5 6 6 7 6 7 7 6 4 6 8 9 11 13 11 8 7 7 8 7 6 6 7 8 7 6 7 6 6 5 6 8 7 6 8 9
6 5 5 7 6 6 8 10 12 5 2 1 5 5 5 6 6 6 8 8 7 7 7 3 3 5 6 5 4 3 5 6 5 6 7 8 7 8 8 8 8 7 6 7 7 8 8 8 6
5 3 6 9 8 7 8 8 11 4 5 7 5 5 5 4 3 6 8 8 7 9 9 8 6 2 3 3 4 4 5 4 4 5 7 7 7 8 8 8 8 7 9 11 10 9 9 9 5
5 6 8 9 5 2 4 6 6 1 5 7 7 6 5 4 6 8 9 9 9 9 9 9 8 7 2 2 2 2 1 2 4 3 4 6 7 8 8 10 10 9 9 11 10 9 8 9 6
7 8 8 6 5 4 1 6 1 2 2 3 4 5 5 6 6 7 8 9 9 10 9 9 9 9 8 4 3 3 2 2 2 2 3 5 7 8 9 11 11 9 9 10 11 10 13 12 9
8 9 8 3 2 4 0 3 4 4 3 3 4 5 5 5 6 5 7 7 8 8 7 9 9 9 9 8 7 6 3 3 3 3 3 5 5 6 7 9 10 10 9 11 12 12 11 13 12
9 4 2 1 1 3 2 2 7 4 6 7 6 6 6 6 6 5 5 6 6 7 8 8 9 9 9 8 8 7 5 3 3 3 5 6 5 6 6 6 6 8 8 10 11 11 12 11 12
5 6 6 5 4 3 6 6 8 8 11 9 7 6 7 6 5 4 4 5 6 7 7 7 9 9 9 9 9 8 8 7 7 7 7 6 5 5 8 8 7 7 6 8 10 11 12 11 13
5 6 2 2 1 7 4 5 11 10 9 12 12 9 8 7 6 5 4 4 5 6 6 6 8 9 9 9 9 8 8 7 7 6 5 5 5 4 8 8 8 7 7 7 8 9 10 10 12
6 8 7 7 6 5 2 7 9 6 5 8 10 9 8 7 6 6 5 4 3 5 6 7 8 8 8 8 7 7 7 5 4 5 4 5 5 5 7 9 9 9 9 9 8 7 8 8 10
7 5 5 4 2 3 5 7 7 6 9 10 9 8 8 7 7 6 5 4 3 6 6 6 7 8 8 8 8 8 8 7 7 6 6 5 6 7 10 10 11 11 10 11 10 8 9 9 8
4 7 5 4 4 4 5 5 4 2 6 8 9 9 8 7 6 5 4 3 5 6 6 7 7 7 7 7 7 6 7 7 7 7 8 8 8 9 10 11 12 12 11 11 11 10 10 11 11
4 3 4 3 3 4 3 6 5 7 9 10 10 9 9 8 7 5 3 4 6 6 6 6 6 7 7 7 7 7 7 7 7 7 8 8 8 9 10 10 11 11 11 11 11 12 13 12 12
5 6 7 5 4 4 3 8 5 2 8 9 9 8 6 7 6 5 6 7 6 6 6 6 6 6 6 6 6 6 7 7 8 8 9 9 10 10 10 11 11 11 11 11 11 13 13 11 12
Wind_Direction
318 340 35 54 54 51 246 254 259 297 286 276 104 121 125 135 206 247 150 141 149 151 164 170 174 166 159 159 164 169 173 172 178 194 177 159 150 147 143 126 118 121 124 124 130 314 156 126 135
328 4 43 56 89 148 264 252 272 262 257 269 111 111 102 209 227 146 149 151 150 155 161 167 172 165 162 163 166 171 177 178 183 210 193 167 155 143 137 136 160 148 132 143 163 319 143 143 131
348 55 69 67 122 194 242 249 277 290 263 213 102 73 153 211 197 187 190 153 149 157 164 169 171 169 166 166 169 176 180 180 197 220 197 174 160 151 151 162 171 162 156 159 168 16 132 145 85
42 36 48 66 255 240 242 276 280 281 289 234 117 94 314 313 211 201 159 151 155 163 167 169 171 173 171 170 173 177 182 189 199 189 179 182 171 159 167 175 178 179 181 177 184 206 232 195 208
55 67 43 352 277 267 260 269 265 260 271 234 139 154 249 318 134 151 144 150 162 168 174 173 174 176 176 175 179 179 185 192 189 171 158 177 180 176 175 184 190 191 194 200 208 216 223 224 228
46 64 63 296 279 284 278 279 275 247 247 216 146 162 226 209 154 170 157 155 167 169 175 176 178 178 179 180 182 182 188 197 199 190 186 198 206 199 191 201 213 210 207 209 217 225 228 230 229
103 99 183 253 274 293 286 308 281 262 263 227 156 158 234 218 207 185 166 154 163 166 168 173 176 177 179 182 184 186 193 208 209 196 198 209 219 211 211 217 224 220 221 224 228 232 234 234 234
132 106 244 260 258 274 303 327 334 337 269 235 135 158 222 213 190 174 169 159 169 173 171 173 172 171 175 184 188 190 195 209 204 195 191 202 208 209 218 224 224 220 223 229 235 240 240 237 236
104 91 232 242 242 272 313 323 311 306 302 5 30 197 231 152 149 151 174 187 177 187 184 180 180 179 178 184 192 194 196 205 206 197 190 195 204 213 219 217 217 218 220 226 235 241 243 242 238
113 168 228 229 225 278 300 298 302 335 331 327 337 343 79 135 159 170 191 205 196 192 196 192 191 188 184 191 190 194 197 201 198 188 192 189 195 215 224 226 223 224 222 225 234 241 243 242 233
170 197 236 254 252 256 274 283 284 317 298 270 253 223 173 173 185 193 208 214 209 196 196 198 197 193 191 193 182 189 198 199 198 195 196 197 204 220 229 228 231 229 228 229 240 247 240 231 223
197 233 236 260 272 269 260 268 282 246 246 262 271 209 180 194 203 206 212 218 209 213 213 194 196 197 199 196 188 186 195 203 206 205 202 203 214 223 222 222 221 221 222 227 232 239 242 238 234
225 255 258 266 277 261 262 260 259 259 262 280 266 180 190 202 214 219 221 223 216 217 218 205 189 196 197 195 193 194 201 206 209 211 213 211 218 227 225 224 222 223 219 219 225 233 235 238 239
226 241 272 275 274 274 268 276 268 263 275 311 251 211 211 214 216 219 223 225 223 223 219 210 201 195 190 191 193 196 200 206 211 216 218 215 218 221 221 224 225 227 223 223 226 230 232 234 237
254 277 293 268 255 253 281 291 259 259 290 283 255 239 238 239 240 238 244 244 240 235 226 214 210 200 195 196 196 197 199 204 212 218 220 222 222 222 223 227 230 229 223 231 237 242 243 243 242
331 327 283 278 249 233 182 262 269 277 292 268 266 334 345 355 24 354 327 282 260 241 229 220 212 202 204 205 200 198 200 206 214 216 220 226 226 223 225 239 248 239 222 224 230 232 236 239 239
352 251 260 288 254 209 177 242 269 291 317 286 6 86 78 62 39 19 11 7 353 312 253 230 217 205 205 206 201 199 199 211 215 211 218 222 222 216 216 230 233 217 219 226 233 233 228 243 245
210 223 257 268 272 180 192 238 269 314 329 124 104 99 78 65 36 13 11 7 5 10 20 8 262 236 219 209 198 201 215 223 218 216 223 221 219 215 216 233 235 220 227 236 232 240 238 244 248
188 226 284 275 255 185 204 236 270 296 113 118 120 113 100 81 41 26 18 8 11 17 21 22 22 333 189 173 189 204 225 229 232 232 233 228 225 222 223 237 239 229 234 241 234 235 242 248 230
232 273 287 291 300 198 228 267 286 176 157 152 146 137 116 77 37 23 15 13 16 19 19 22 18 12 12 177 161 168 202 226 238 252 249 239 235 232 233 237 243 237 239 245 242 232 242 252 218
230 230 247 267 332 358 293 316 330 33 125 131 136 132 102 76 53 25 14 12 17 22 20 29 25 24 24 43 94 84 65 17 358 312 281 264 252 248 246 248 248 245 237 244 245 235 238 251 244
234 225 216 233 26 306 107 275 259 209 206 173 150 117 93 72 58 41 25 20 18 13 18 29 31 33 29 32 50 58 51 17 328 307 300 300 286 275 269 265 261 257 249 247 248 242 239 243 253
208 192 170 112 93 319 297 215 268 204 218 211 189 149 117 91 80 62 41 33 25 19 22 22 29 33 31 38 49 55 46 18 340 345 352 347 337 333 329 314 295 278 268 262 260 258 251 246 248
154 74 48 43 67 282 229 185 263 208 208 197 190 169 142 123 111 95 61 44 32 25 24 22 29 26 20 27 31 37 32 19 13 4 359 352 342 343 354 348 344 328 310 292 283 276 270 265 260
108 100 65 329 306 251 240 197 248 226 203 177 173 171 163 152 139 122 98 67 43 33 27 25 33 28 22 28 30 26 24 23 20 7 359 357 348 339 345 346 343 341 334 324 313 302 291 283 278
159 143 167 197 216 265 255 231 254 288 180 141 145 158 162 159 153 146 136 109 63 36 30 30 40 38 30 31 28 25 26 27 19 11 3 355 344 328 335 338 336 334 332 330 326 316 305 299 292
143 187 185 160 234 262 267 275 305 38 112 127 142 155 169 174 172 155 137 120 73 44 41 49 57 47 32 27 23 20 16 17 11 5 2 354 346 341 341 336 333 329 327 326 324 318 313 308 299
149 153 128 158 188 239 279 274 269 168 157 152 163 174 187 185 173 157 150 118 75 73 64 56 56 50 36 30 26 21 14 12 6 4 359 351 343 338 335 333 329 326 324 323 321 317 312 310 306
157 165 155 155 182 179 251 273 238 211 187 174 185 192 192 182 174 169 144 95 91 78 64 58 48 41 31 23 18 15 10 5 3 359 350 340 334 331 329 327 326 324 321 319 317 315 314 312 311
185 185 155 168 215 179 191 270 290 234 185 179 193 201 190 173 162 137 112 102 92 81 70 59 44 35 22 15 14 13 12 8 4 355 347 343 340 338 333 331 329 326 322 317 313 310 314 316 316